Weather History for Luverne, MN

Change the Weather History Date:

Saturday, January 18, 2014

  Actual Average (KFSD) Record (KFSD)
Temperature  
Mean Temperature 26 °F 17 °F  
Max Temperature 35 °F 26 °F 52 °F (1919)
Min Temperature 17 °F 7 °F -28 °F (1970)
Degree Days  
Heating Degree Days 39 49  
Month to date heating degree days 882  
Since 1 July heating degree days 4015  
Cooling Degree Days 0 0  
Month to date cooling degree days 0  
Year to date cooling degree days 0  
Moisture  
Dew Point 20 °F    
Average Humidity 81    
Maximum Humidity 93    
Minimum Humidity 69    
Precipitation  
Precipitation 0.00 in 0.02 in 0.31 in (1922)
Month to date precipitation 0.33  
Year to date precipitation 0.33  
Snow  
Snow 0.00 in 0.20 in 3.50 in (1922)
Month to date snowfall 4.4  
Since 1 July snowfall 21.3  
Snow Depth -    
Sea Level Pressure  
Sea Level Pressure 29.76 in    
Wind  
Wind Speed 18 mph (WNW)    
Max Wind Speed 36 mph    
Max Gust Speed 45 mph    
Visibility 9 miles    
Events Rain , Snow    
T = Trace of Precipitation, MM = Missing Value Source: NWS Daily Summary

Daily Weather History Graph

Daily Weather History Graph

Search for Another Location

Airport:

Trip Planner

Search our weather history database for the weather conditions in past years. The results will help you decide how hot, cold, wet, or windy it might be!

Date:

Astronomy

Jan. 18, 2014 Rise Set
Actual Time 7:53 AM CST 5:17 PM CST
Civil Twilight 7:21 AM CST 5:49 PM CST
Nautical Twilight 6:46 AM CST 6:24 PM CST
Astronomical Twilight 6:12 AM CST 6:58 PM CST
Moon 8:07 PM CST (1/18) 8:48 AM CST (1/18)
Length of Visible Light 10h 27m
Length of Day
9h 24m
Waning Gibbous, 94% of the Moon is Illuminated
Jan 18
Waning Gibbous
Jan 23
Last Quarter
Jan 30
New
Feb 6
First Quarter
Feb 14
Full

Hourly Weather History & Observations

Time (CST) Temp. Windchill Dew Point Humidity Pressure Visibility Wind Dir Wind Speed Gust Speed Precip Events Conditions
12:14 AM 26.6 °F 15.2 °F 17.6 °F 69% 29.62 in 10.0 mi South 13.8 mph - N/A   Overcast
12:35 AM 26.6 °F 15.2 °F 17.6 °F 69% 29.59 in 10.0 mi South 13.8 mph - N/A   Overcast
12:54 AM 28.4 °F 18.0 °F 19.4 °F 69% 29.59 in 10.0 mi SSW 12.7 mph - N/A   Overcast
1:14 AM 26.6 °F 15.7 °F 17.6 °F 69% 29.56 in 10.0 mi SSW 12.7 mph - N/A   Mostly Cloudy
1:35 AM 26.6 °F 16.8 °F 19.4 °F 74% 29.55 in 10.0 mi SW 10.4 mph - N/A   Mostly Cloudy
1:54 AM 28.4 °F 18.0 °F 19.4 °F 69% 29.55 in 10.0 mi WSW 12.7 mph - N/A   Overcast
2:15 AM 28.4 °F 17.5 °F 21.2 °F 74% 29.54 in 10.0 mi WSW 13.8 mph - N/A   Mostly Cloudy
2:34 AM 30.2 °F 19.8 °F 23.0 °F 75% 29.53 in 10.0 mi West 13.8 mph - N/A   Overcast
2:55 AM 32.0 °F 21.6 °F 24.8 °F 75% 29.53 in 10.0 mi West 15.0 mph - N/A   Overcast
3:14 AM 32.0 °F 20.5 °F 26.6 °F 80% 29.52 in 10.0 mi WNW 18.4 mph - N/A   Overcast
3:35 AM 33.8 °F 21.3 °F 30.2 °F 87% 29.51 in 7.0 mi WNW 24.2 mph 28.8 mph N/A   Light Drizzle
3:54 AM 33.8 °F 21.6 °F 30.2 °F 87% 29.51 in 10.0 mi WNW 23.0 mph 28.8 mph N/A   Mostly Cloudy
4:15 AM 33.8 °F 21.6 °F 30.2 °F 87% 29.50 in 7.0 mi WNW 23.0 mph 27.6 mph N/A   Overcast
4:34 AM 35.6 °F 24.2 °F 32.0 °F 87% 29.50 in 5.0 mi WNW 21.9 mph 29.9 mph N/A   Drizzle
4:55 AM 35.6 °F 23.2 °F 32.0 °F 87% 29.49 in 5.0 mi NW 26.5 mph 33.4 mph N/A Rain Light Rain
5:15 AM 35.6 °F 23.0 °F 32.0 °F 87% 29.49 in 7.0 mi WNW 27.6 mph 34.5 mph N/A Rain Light Rain
5:34 AM 35.6 °F 22.7 °F 32.0 °F 87% 29.49 in 10.0 mi WNW 28.8 mph 36.8 mph N/A   Overcast
5:54 AM 35.6 °F 23.2 °F 32.0 °F 87% 29.49 in 10.0 mi WNW 26.5 mph 32.2 mph N/A Snow Light Snow
6:15 AM 35.6 °F 23.7 °F 32.0 °F 87% 29.49 in 10.0 mi WNW 24.2 mph 34.5 mph N/A Rain Light Rain
6:34 AM 35.6 °F 23.4 °F 32.0 °F 87% 29.49 in 10.0 mi WNW 25.3 mph 35.7 mph N/A   Light Drizzle
6:54 AM 35.6 °F 22.7 °F 32.0 °F 87% 29.48 in 10.0 mi WNW 28.8 mph 36.8 mph N/A Rain Light Rain
7:15 AM 35.6 °F 22.3 °F 30.2 °F 81% 29.48 in 7.0 mi NW 31.1 mph 42.6 mph N/A Rain Light Rain
7:34 AM 33.8 °F 19.0 °F 28.4 °F 81% 29.49 in 2.0 mi NNW 35.7 mph 44.9 mph N/A Snow Light Snow
7:54 AM 32.0 °F 17.6 °F 26.6 °F 80% 29.51 in 7.0 mi NNW 29.9 mph 39.1 mph N/A   Overcast
8:15 AM 30.2 °F 14.9 °F 26.6 °F 86% 29.54 in 10.0 mi NNW 31.1 mph 43.7 mph N/A   Overcast
8:34 AM 30.2 °F 15.2 °F 24.8 °F 80% 29.55 in 7.0 mi NNW 29.9 mph 38.0 mph N/A   Overcast
8:54 AM 30.2 °F 15.9 °F 24.8 °F 80% 29.58 in 10.0 mi NNW 26.5 mph 39.1 mph N/A   Overcast
9:15 AM 28.4 °F 13.8 °F 23.0 °F 80% 29.61 in 7.0 mi NNW 25.3 mph 36.8 mph N/A   Overcast
9:34 AM 26.6 °F 10.8 °F 21.2 °F 80% 29.64 in 4.0 mi NNW 27.6 mph 38.0 mph N/A   Overcast
9:54 AM 26.6 °F 10.8 °F 21.2 °F 80% 29.67 in 2.5 mi North 27.6 mph 39.1 mph N/A   Haze
10:15 AM 23.0 °F 6.6 °F 19.4 °F 86% 29.70 in 4.0 mi North 25.3 mph 40.3 mph N/A   Haze
10:34 AM 23.0 °F 5.4 °F 17.6 °F 80% 29.74 in 5.0 mi North 29.9 mph 40.3 mph N/A   Haze
10:54 AM 21.2 °F 4.5 °F 15.8 °F 80% 29.78 in 10.0 mi North 24.2 mph 38.0 mph N/A   Overcast
11:15 AM 21.2 °F 4.2 °F 15.8 °F 80% 29.80 in 4.0 mi North 25.3 mph 33.4 mph N/A Snow Light Snow
11:34 AM 19.4 °F 1.1 °F 14.0 °F 80% 29.81 in 4.0 mi North 27.6 mph 36.8 mph N/A Snow Light Snow
11:54 AM 19.4 °F 1.8 °F 14.0 °F 80% 29.82 in 7.0 mi North 25.3 mph 34.5 mph N/A   Overcast
12:15 PM 19.4 °F 1.8 °F 14.0 °F 80% 29.84 in 10.0 mi North 25.3 mph 38.0 mph N/A   Overcast
12:34 PM 21.2 °F 3.3 °F 14.0 °F 74% 29.85 in 7.0 mi North 28.8 mph 35.7 mph N/A   Overcast
12:55 PM 21.2 °F 5.6 °F 14.0 °F 74% 29.87 in 10.0 mi North 20.7 mph 31.1 mph N/A   Overcast
1:14 PM 21.2 °F 6.8 °F 14.0 °F 74% 29.88 in 10.0 mi North 17.3 mph 29.9 mph N/A   Mostly Cloudy
1:35 PM 21.2 °F 6.0 °F 14.0 °F 74% 29.90 in 10.0 mi North 19.6 mph 29.9 mph N/A   Scattered Clouds
1:55 PM 21.2 °F 6.8 °F 14.0 °F 74% 29.92 in 10.0 mi North 17.3 mph 24.2 mph N/A   Clear
2:14 PM 23.0 °F 9.2 °F 15.8 °F 74% 29.93 in 10.0 mi NNW 17.3 mph 23.0 mph N/A   Clear
2:35 PM 23.0 °F 8.3 °F 15.8 °F 74% 29.94 in 10.0 mi NNW 19.6 mph 26.5 mph N/A   Clear
2:54 PM 23.0 °F 7.6 °F 15.8 °F 74% 29.97 in 10.0 mi NNW 21.9 mph 26.5 mph N/A   Clear
3:15 PM 23.0 °F 8.7 °F 15.8 °F 74% 29.97 in 10.0 mi NNW 18.4 mph 25.3 mph N/A   Clear
3:35 PM 23.0 °F 8.7 °F 15.8 °F 74% 29.99 in 10.0 mi NNW 18.4 mph 26.5 mph N/A   Clear
3:54 PM 23.0 °F 8.3 °F 15.8 °F 74% 30.00 in 10.0 mi NNW 19.6 mph - N/A   Clear
4:15 PM 23.0 °F 10.1 °F 15.8 °F 74% 30.00 in 10.0 mi NNW 15.0 mph - N/A   Clear
4:35 PM 23.0 °F 11.1 °F 15.8 °F 74% 30.02 in 10.0 mi NNW 12.7 mph 19.6 mph N/A   Clear
4:54 PM 21.2 °F 8.9 °F 15.8 °F 80% 30.02 in 10.0 mi NNW 12.7 mph - N/A   Clear
5:15 PM 21.2 °F 10.9 °F 15.8 °F 80% 30.00 in 10.0 mi NNW 9.2 mph - N/A   Clear
5:35 PM 21.2 °F 12.6 °F 15.8 °F 80% 30.01 in 10.0 mi NW 6.9 mph - N/A   Clear
5:54 PM 21.2 °F 11.7 °F 14.0 °F 74% 30.01 in 10.0 mi NNW 8.1 mph - N/A   Clear
6:15 PM 19.4 °F 9.5 °F 14.0 °F 80% 30.02 in 10.0 mi WNW 8.1 mph - N/A   Clear
6:35 PM 19.4 °F 9.5 °F 14.0 °F 80% 30.00 in 10.0 mi West 8.1 mph - N/A   Clear
6:54 PM 17.6 °F 5.7 °F 14.0 °F 86% 29.99 in 10.0 mi West 10.4 mph - N/A   Clear
7:15 PM 17.6 °F 5.7 °F 14.0 °F 86% 30.00 in 10.0 mi WNW 10.4 mph - N/A   Scattered Clouds
7:35 PM 19.4 °F 9.5 °F 15.8 °F 86% 29.97 in 10.0 mi West 8.1 mph - N/A   Overcast
7:54 PM 19.4 °F 11.5 °F 17.6 °F 93% 29.99 in 10.0 mi NNW 5.8 mph - N/A   Overcast
8:15 PM 19.4 °F - 17.6 °F 93% 29.97 in 10.0 mi Calm Calm - N/A   Scattered Clouds
8:35 PM 19.4 °F 14.3 °F 17.6 °F 93% 29.94 in 10.0 mi WSW 3.5 mph - N/A   Clear
8:54 PM 19.4 °F 10.4 °F 17.6 °F 93% 29.94 in 10.0 mi WSW 6.9 mph - N/A   Clear
9:15 PM 19.4 °F 9.5 °F 17.6 °F 93% 29.93 in 10.0 mi SW 8.1 mph - N/A   Clear
9:35 PM 19.4 °F 10.4 °F 17.6 °F 93% 29.92 in 10.0 mi SSW 6.9 mph - N/A   Clear
9:54 PM 21.2 °F 11.7 °F 17.6 °F 86% 29.92 in 10.0 mi SW 8.1 mph - N/A   Clear
10:15 PM 21.2 °F 8.9 °F 19.4 °F 93% 29.91 in 10.0 mi SW 12.7 mph - N/A   Clear
10:35 PM 21.2 °F 11.7 °F 19.4 °F 93% 29.92 in 10.0 mi SW 8.1 mph - N/A   Clear
10:54 PM 21.2 °F 10.1 °F 19.4 °F 93% 29.91 in 10.0 mi SW 10.4 mph - N/A   Clear
11:15 PM 21.2 °F 7.8 °F 17.6 °F 86% 29.87 in 10.0 mi SW 15.0 mph - N/A   Clear
11:34 PM 21.2 °F 8.3 °F 19.4 °F 93% 29.85 in 10.0 mi SW 13.8 mph - N/A   Clear
11:54 PM 21.2 °F 9.5 °F 17.6 °F 86% 29.84 in 10.0 mi WSW 11.5 mph - N/A   Clear